Edwards AFB North Base, CA

5:15 AM PDT on May 25, 2017 (GMT -0700)
Edwards AFB North Base

Weather History for K9L2 - January, 2013

Change the Weather History Date:

Saturday, January 12, 2013

  Actual Average (KEDW) Record (KEDW)
Temperature  
Mean Temperature 27 °F -  
Max Temperature 42 °F 58 °F 69 °F (1999)
Min Temperature 12 °F 30 °F 15 °F (2013)
Degree Days  
Heating Degree Days 38    
Moisture  
Dew Point 8 °F    
Average Humidity 49    
Maximum Humidity 74    
Minimum Humidity 22    
Precipitation  
Precipitation 0.00 in - - ()
Sea Level Pressure  
Sea Level Pressure 30.15 in    
Wind  
Wind Speed 2 mph (West)    
Max Wind Speed 6 mph    
Max Gust Speed -    
Visibility 10 miles    
Events      
Averages and records for this station are not official NWS values.
T = Trace of Precipitation, MM = Missing Value Source: NWS Daily Summary

Daily Weather History Graph

Daily Weather History Graph

Search for Another Location

Airport or City:

Trip Planner

Search our weather history database for the weather conditions in past years. The results will help you decide how hot, cold, wet, or windy it might be!

Date:

Astronomy

Jan. 12, 2013 Rise Set
Actual Time 6:59 AM PST 5:00 PM PST
Civil Twilight 6:31 AM PST 5:28 PM PST
Nautical Twilight 6:00 AM PST 5:59 PM PST
Astronomical Twilight 5:30 AM PST 6:29 PM PST
Moon 7:25 AM PST (1/12) 6:30 PM PST (1/12)
Length of Visible Light 10h 56m
Length of Day
10h 01m
New Moon, 2% of the Moon is Illuminated
Jan 12
New Moon
Jan 18
First Quarter
Jan 26
Full
Feb 3
Last Quarter
Feb 9
New

Hourly Weather History & Observations

Time (PST) Temp. Windchill Dew Point Humidity Pressure Visibility Wind Dir Wind Speed Gust Speed Precip Events Conditions
12:55 AM 21.2 °F 16.4 °F 10.4 °F 63% 30.03 in 10.0 mi NW 3.5 mph - N/A   Mostly Cloudy
1:55 AM 19.9 °F 14.9 °F 10.0 °F 65% 30.11 in 10.0 mi NNE 3.5 mph - N/A   Clear
2:55 AM 18.0 °F 9.8 °F 9.0 °F 68% 30.11 in 10.0 mi WNW 5.8 mph - N/A   Clear
3:55 AM 17.1 °F 8.7 °F 9.0 °F 71% 30.12 in 10.0 mi WNW 5.8 mph - N/A   Clear
4:55 AM 16.0 °F - 8.1 °F 71% 30.14 in 10.0 mi Calm Calm - N/A   Clear
5:55 AM 14.0 °F - 6.8 °F 73% 30.08 in 10.0 mi Calm Calm - N/A   Clear
6:55 AM 12.9 °F - 6.1 °F 74% 30.19 in 10.0 mi Calm Calm - N/A   Clear
7:55 AM 19.0 °F - 10.0 °F 68% 30.22 in 10.0 mi Calm Calm - N/A   Clear
8:55 AM 26.1 °F - 12.9 °F 58% 30.22 in 10.0 mi Calm Calm - N/A   Clear
9:55 AM 28.0 °F - 12.9 °F 53% 30.23 in 10.0 mi Calm Calm - N/A   Clear
10:55 AM 33.1 °F - 15.1 °F 48% 30.21 in 10.0 mi Calm Calm - N/A   Clear
11:55 AM 37.9 °F 34.4 °F 12.9 °F 36% 30.16 in 10.0 mi South 4.6 mph - N/A   Clear
12:55 PM 41.0 °F 38.0 °F 10.0 °F 28% 30.14 in 10.0 mi Variable 4.6 mph - N/A   Clear
1:55 PM 41.0 °F 38.0 °F 6.1 °F 24% 30.13 in 10.0 mi ESE 4.6 mph - N/A   Clear
2:55 PM 42.1 °F - 6.1 °F 23% 30.13 in 10.0 mi Calm Calm - N/A   Clear
3:55 PM 42.1 °F 39.2 °F 5.0 °F 22% 30.12 in 10.0 mi SSE 4.6 mph - N/A   Clear
4:55 PM 39.9 °F - 5.0 °F 23% 30.12 in 10.0 mi Calm Calm - N/A   Clear
5:55 PM 30.9 °F - 1.9 °F 29% 30.14 in 10.0 mi Calm Calm - N/A   Clear
6:55 PM 26.1 °F - -0.0 °F 32% 30.15 in 10.0 mi Calm Calm - N/A   Clear
7:55 PM 25.0 °F - 3.0 °F 39% 30.15 in 10.0 mi Calm Calm - N/A   Clear
8:55 PM 24.1 °F - 10.0 °F 55% 30.15 in 10.0 mi Calm Calm - N/A   Clear
9:55 PM 21.0 °F - 3.9 °F 48% 30.16 in 10.0 mi Calm Calm - N/A   Clear
10:55 PM 19.0 °F 12.3 °F 7.0 °F 59% 30.17 in 10.0 mi West 4.6 mph - N/A   Clear
11:55 PM 19.0 °F - 1.9 °F 47% 30.17 in 10.0 mi Calm Calm - N/A   Clear